Regional Weather Roundup
Issued by NWS

Home | Current Version | Previous Version | Graphics & Text | Print | Product List | Glossary Off
Versions: 1 2 3 4 5 6 7 8 9 10 11 12 13 14 15 16 17 18 19 20 21 22 23 24 25 26 27 28 29 30 31 32 33 34 35 36 37 38 39 40 41 42 43 44 45 46 47 48 49 50

000
ASUS43 KMPX 251301
RWRMN
WEATHER ROUNDUP FOR MINNESOTA
NATIONAL WEATHER SERVICE TWIN CITIES/CHANHASSEN MN
800 AM CDT SAT OCT 25 2014


NOTE: "FAIR" INDICATES FEW OR NO CLOUDS BELOW 12,000 FEET WITH NO
SIGNIFICANT WEATHER AND/OR OBSTRUCTIONS TO VISIBILITY. N/A MEANS
CURRENT SKY AND/OR WEATHER CONDITIONS ARE NOT AVAILABLE.

MNZ060>063-068>070-251400-
   Twin Cities Metro

CITY           SKY/WX    TMP DP  RH WIND       PRES   REMARKS
TWIN CITIES    PTCLDY    51  34  52 W10       30.00R
ST PAUL        CLEAR     50  35  56 NW9       30.01R
CRYSTAL        CLEAR     52  34  50 NW12      30.00R
BLAINE         PTCLDY    52  36  54 W10       30.00R
LAKEVILLE      PTCLDY    48  37  66 W5        30.02R
EDEN PRAIRIE   PTCLDY    52  35  52 NW8       30.00R
SOUTH ST PAUL  CLEAR     54  33  45 NW13      30.00R
LAKE ELMO      FAIR      50  36  57 NW8       30.00R
$$
MNZ001>005-007-008-013>017-022>024-027-028-251400-
   Northwest Minnesota

CITY           SKY/WX    TMP DP  RH WIND       PRES   REMARKS
BEMIDJI        CLEAR     39  32  73 W9        29.97S
HALLOCK        CLEAR     36  30  80 W8        29.99R
ROSEAU         CLEAR     39  32  75 W9        29.94R
WARROAD          N/A     37  32  81 W13       29.93
THIEF RVR FALL CLEAR     39  30  70 W14       30.00R
CROOKSTON      CLEAR     39  32  75 W10       30.04R
FOSSTON        CLEAR     34  28  80 SW6       30.02R WCI  29
DETROIT LAKES  CLEAR     41  34  75 NW12      30.04R
MOORHEAD       CLEAR     45  34  65 W9        30.07R
PARK RAPIDS    CLEAR     39  31  72 W12       30.00R
MAHNOMEN       FAIR      36  31  82 W10       30.02S
$$
MNZ006-009>011-018-025>026-251400-
   North Central Minnesota

CITY           SKY/WX    TMP DP  RH WIND       PRES   REMARKS
BAUDETTE       CLEAR     42  31  64 W8G17     29.90R
FLAG ISLAND    CLEAR     43  32  65 W18G24    29.87R
INTL FALLS     CLEAR     40  31  70 W12       29.86R
WASKISH        CLEAR     45  36  70 W17G23    29.93S
BIG FORK       CLEAR     43  30  61 W5        29.92S
LONGVILLE      CLEAR     45  32  61 W7        29.96S
GRAND RAPIDS   CLEAR     45  30  57 W12       29.93S
CRANE LAKE     CLEAR     43  32  65 W6        29.86R
ORR            CLEAR     43  30  61 W9G17     29.85R
COOK           CLEAR     43  32  65 W14       29.89R
WALKER         FAIR      41  31  67 W8        29.98R
$$
MNZ012-019>021-037-251400-
   Northeast Minnesota

CITY           SKY/WX    TMP DP  RH WIND       PRES   REMARKS
DULUTH         CLEAR     47  32  56 W16       29.88R
ELY            CLEAR     43  32  65 W14G22    29.83R
HIBBING        CLEAR     45  30  55 NW10      29.90R
EVELETH        CLEAR     43  32  65 W12G18    29.89R
DULUTH HARBOR  CLEAR     52  36  54 W12G20    29.91R
TWO HARBORS    CLEAR     48  23  37 W12G24    29.83R
SILVER BAY     CLEAR     48  34  57 W12G21    29.80R
GRAND MARAIS     N/A     51  33  50 NW17G44   29.69R
G MARAIS ARPRT CLEAR     45  30  57 W18G28    29.73R
$$
MNZ029>031-032-039>041-046>048-054>057-064-251400-
   West Central Minnesota

CITY           SKY/WX    TMP DP  RH WIND       PRES   REMARKS
FERGUS FALLS   CLEAR     36  28  75 W5        30.09R
WHEATON        MOCLDY    46  34  61 W6        30.11R
MORRIS         MOCLDY    48  36  61 NW8       30.07R
ALEXANDRIA     PTCLDY    43  33  68 NW9       30.07R
ELBOW LAKE     FAIR      40  33  75 NW6       30.07R
WADENA         CLEAR     41  32  70 W7        30.03R
GLENWOOD       MOCLDY    41  34  75 W7        30.07R
APPLETON       MOCLDY    50  36  57 NW7       30.08R
BENSON         CLOUDY    48  36  61 N6        30.08R
ORTONVILLE     MOCLDY    52  36  54 NW6       30.09R
MADISON        PTCLDY    50  37  62 NW7       30.09R
WILLMAR        FAIR      50  36  57 NW6       30.08R
$$
MNZ033>034-036-042>043-049>051-058-059-251400-
   Central Minnesota

CITY           SKY/WX    TMP DP  RH WIND       PRES   REMARKS
ST CLOUD       CLEAR     49  34  56 W10       30.02R
SAUK CENTRE    FAIR      39  33  76 W5        30.05R
PAYNESVILLE    PTCLDY    42  33  70 W7        30.05R
AITKIN         CLEAR     45  34  65 CALM      29.96R
PINE RIVER     CLEAR     43  34  70 W6        30.02S
BRAINERD       CLEAR     44  33  65 W8        30.00R
STAPLES        CLEAR     41  32  70 W8        30.02S
LONG PRAIRIE   FAIR      43  32  65 W9        30.04R
LITTLE FALLS   CLEAR     45  32  61 W8        30.02R
LITCHFIELD     MOCLDY    52  34  50 NW10      30.05R
BUFFALO        PTCLDY    49  34  56 W8        30.03R
MAPLE LAKE     PTCLDY    48  37  64 W9        30.03R
$$
MNZ037-044-045-052-053-251400-
   East Central Minnesota

CITY           SKY/WX    TMP DP  RH WIND       PRES   REMARKS
PRINCETON      CLEAR     46  36  66 W9        30.01R
MORA           CLEAR     45  32  61 NW7       30.00R
CAMBRIDGE      CLEAR     48  36  61 W7        29.98R
RUSH CITY      PTCLDY    43  35  72 W5        29.98R
MOOSE LAKE     CLEAR     45  32  61 W9        29.93R
HINCKLEY       FAIR      46  36  66 CALM      29.96R
CLOQUET        CLEAR     46  30  53 W12G18    29.91R
MCGREGOR       CLEAR     46  34  61 W8        29.96R
$$
MNZ071>073-080-081-089-090-097-098-251400-
   Southwest Minnesota

CITY           SKY/WX    TMP DP  RH WIND       PRES   REMARKS
MONTEVIDEO     MOCLDY    50  37  62 N6        30.09R
GRANITE FALLS  MOCLDY    44  37  76 W6        30.09R
CANBY          PTCLDY    48  35  61 W6        30.10R
MARSHALL       PTCLDY    48  32  53 W9        30.08R
REDWOOD FALLS  MOCLDY    48  38  68 W8        30.08R
OLIVIA         CLOUDY    50  37  62 NW7       30.06R
PIPESTONE      PTCLDY    45  36  70 CALM      30.10R
WINDOM         CLEAR     46  34  61 W5        30.08S
WORTHINGTON    CLEAR     43  34  70 NW7       30.10S
JACKSON        CLEAR     46  34  61 NW6       30.08R
TRACY          PTCLDY    51  35  52 W6        30.09R
SLAYTON        PTCLDY    45  35  67 NW8       30.10R
$$
MNZ065>067-074>077-082>085-091>093-251400-
   South Central Minnesota

CITY           SKY/WX    TMP DP  RH WIND       PRES   REMARKS
MANKATO        MOCLDY    50  36  57 W10       30.04R
NEW ULM        MOCLDY    45  37  76 W7        30.06R
ST JAMES       PTCLDY    48  37  66 W7        30.08R
FAIRMONT       PTCLDY    48   5  17 NW7       30.07R
GLENCOE        CLOUDY    53  38  58 NW7       30.03R
FARIBAULT      PTCLDY    50  39  66 W5        30.04R
OWATONNA       PTCLDY    48  41  76 W5        30.03R
WASECA         MOCLDY    41  34  75 W3        30.06R
ALBERT LEA     CLEAR     46  39  76 W5        30.04R
$$
MNZ078>079-086>088-094>096-251400-
   Southeast Minnesota

CITY           SKY/WX    TMP DP  RH WIND       PRES   REMARKS
ROCHESTER      PTCLDY    45  39  79 W8        30.02R
RED WING       CLEAR     39  37  93 W3        29.98R
STANTON        PTCLDY    50  38  64 W6        30.01R
DODGE CENTER   PTCLDY    50  39  66 W9        30.02R
WINONA         CLEAR     46  41  81 NW6       29.98R
AUSTIN         PTCLDY    48  39  71 NW7       30.03R
PRESTON        CLEAR     46  39  79 NW9       30.01R
$$
ABBREVIATIONS USED IN REMARKS
   TC - TEMPERATURES IN CELSIUS
  WCI - WIND CHILL INDEX
   HX - HEAT INDEX
  VSB - VISIBILITY
$$



USA.gov is the U.S. government's official web portal to all federal, state and local government web resources and services.